TimeEST,TemperatureF,Dew PointF,Humidity,Sea Level PressureIn,VisibilityMPH,Wind Direction,Wind SpeedMPH,Gust SpeedMPH,PrecipitationIn,Events,Conditions,WindDirDegrees,DateUTC
12:15 AM,71.6,71.6,100,30.12,7.0,SSW,8.1,-,N/A,,Scattered Clouds,200,2013-12-23 05:15:00
12:35 AM,71.6,69.8,94,30.12,7.0,SSW,8.1,-,N/A,,Scattered Clouds,210,2013-12-23 05:35:00
12:55 AM,71.6,69.8,94,30.12,7.0,SSW,6.9,-,N/A,,Clear,210,2013-12-23 05:55:00
1:15 AM,71.6,69.8,94,30.11,7.0,SSW,8.1,-,N/A,,Scattered Clouds,200,2013-12-23 06:15:00
1:35 AM,71.6,69.8,94,30.11,10.0,SSW,6.9,-,N/A,,Mostly Cloudy,210,2013-12-23 06:35:00
1:55 AM,71.6,71.6,100,30.11,7.0,SSW,5.8,-,N/A,,Overcast,200,2013-12-23 06:55:00
2:15 AM,71.6,71.6,100,30.11,7.0,SSW,5.8,-,N/A,,Overcast,210,2013-12-23 07:15:00
2:35 AM,71.6,71.6,100,30.11,7.0,SW,5.8,-,N/A,,Overcast,220,2013-12-23 07:35:00
2:55 AM,73.4,71.6,94,30.10,7.0,SSW,11.5,17.3,N/A,,Overcast,210,2013-12-23 07:55:00
3:15 AM,73.4,71.6,94,30.09,7.0,SSW,11.5,-,N/A,,Overcast,200,2013-12-23 08:15:00
3:35 AM,73.4,71.6,94,30.08,7.0,SSW,12.7,21.9,N/A,,Overcast,200,2013-12-23 08:35:00
3:55 AM,73.4,71.6,94,30.08,10.0,South,13.8,24.2,N/A,,Overcast,190,2013-12-23 08:55:00
4:15 AM,73.4,71.6,94,30.08,10.0,SSW,17.3,24.2,N/A,,Overcast,200,2013-12-23 09:15:00
4:35 AM,73.4,71.6,94,30.08,10.0,SSW,10.4,-,N/A,,Light Drizzle,200,2013-12-23 09:35:00
4:55 AM,73.4,71.6,94,30.08,7.0,SSW,10.4,17.3,N/A,,Overcast,200,2013-12-23 09:55:00
5:15 AM,73.4,71.6,94,30.07,7.0,SSW,13.8,-,N/A,,Overcast,210,2013-12-23 10:15:00
5:35 AM,73.4,71.6,94,30.08,7.0,SSW,13.8,19.6,N/A,,Overcast,210,2013-12-23 10:35:00
5:55 AM,73.4,71.6,94,30.08,7.0,SSW,10.4,16.1,N/A,,Overcast,210,2013-12-23 10:55:00
6:15 AM,73.4,71.6,94,30.08,7.0,SSW,11.5,-,N/A,,Overcast,210,2013-12-23 11:15:00
6:35 AM,73.4,71.6,94,30.08,7.0,South,6.9,-,N/A,,Overcast,190,2013-12-23 11:35:00
6:55 AM,71.6,69.8,94,30.09,7.0,SSW,8.1,-,N/A,,Mostly Cloudy,200,2013-12-23 11:55:00
7:15 AM,71.6,69.8,94,30.09,7.0,SSW,8.1,-,N/A,,Scattered Clouds,200,2013-12-23 12:15:00
7:35 AM,71.6,69.8,94,30.10,10.0,SW,6.9,-,N/A,,Scattered Clouds,220,2013-12-23 12:35:00
7:55 AM,71.6,69.8,94,30.10,7.0,South,6.9,-,N/A,,Mostly Cloudy,190,2013-12-23 12:55:00
8:15 AM,71.6,69.8,94,30.11,7.0,SSW,8.1,-,N/A,,Scattered Clouds,200,2013-12-23 13:15:00
8:35 AM,71.6,69.8,94,30.11,5.0,SSW,6.9,-,N/A,,Clear,200,2013-12-23 13:35:00
8:55 AM,71.6,69.8,94,30.11,7.0,SSW,6.9,-,N/A,,Clear,210,2013-12-23 13:55:00
9:15 AM,73.4,69.8,88,30.12,7.0,SSW,8.1,-,N/A,,Clear,210,2013-12-23 14:15:00
9:35 AM,75.2,69.8,83,30.12,7.0,SW,9.2,-,N/A,,Clear,230,2013-12-23 14:35:00
9:55 AM,75.2,69.8,83,30.13,7.0,SW,9.2,-,N/A,,Scattered Clouds,220,2013-12-23 14:55:00
10:15 AM,75.2,69.8,83,30.13,7.0,SW,6.9,-,N/A,,Overcast,230,2013-12-23 15:15:00
10:35 AM,75.2,69.8,83,30.13,7.0,SW,8.1,-,N/A,,Overcast,230,2013-12-23 15:35:00
10:55 AM,75.2,69.8,83,30.12,10.0,SW,9.2,-,N/A,,Mostly Cloudy,220,2013-12-23 15:55:00
11:15 AM,77.0,69.8,78,30.12,7.0,SW,11.5,16.1,N/A,,Mostly Cloudy,220,2013-12-23 16:15:00
11:35 AM,77.0,69.8,78,30.10,10.0,South,8.1,-,N/A,,Scattered Clouds,180,2013-12-23 16:35:00
11:55 AM,78.8,69.8,74,30.10,7.0,SSW,13.8,19.6,N/A,,Mostly Cloudy,210,2013-12-23 16:55:00
12:15 PM,78.8,69.8,74,30.10,10.0,SW,12.7,17.3,N/A,,Overcast,220,2013-12-23 17:15:00
12:35 PM,80.6,69.8,70,30.08,10.0,SSW,12.7,17.3,N/A,,Mostly Cloudy,210,2013-12-23 17:35:00
12:55 PM,78.8,69.8,74,30.08,10.0,SW,9.2,-,N/A,,Mostly Cloudy,230,2013-12-23 17:55:00
1:15 PM,78.8,69.8,74,30.06,10.0,WSW,9.2,-,N/A,,Scattered Clouds,250,2013-12-23 18:15:00
1:35 PM,78.8,69.8,74,30.04,10.0,SW,13.8,18.4,N/A,,Scattered Clouds,220,2013-12-23 18:35:00
1:55 PM,78.8,68.0,69,30.04,7.0,SW,9.2,16.1,N/A,,Scattered Clouds,220,2013-12-23 18:55:00
2:15 PM,78.8,69.8,74,30.03,10.0,WSW,6.9,-,N/A,,Mostly Cloudy,240,2013-12-23 19:15:00
2:35 PM,77.0,69.8,78,30.04,7.0,WSW,4.6,-,N/A,Rain,Light Rain,240,2013-12-23 19:35:00
2:55 PM,75.2,69.8,83,30.04,10.0,WSW,8.1,-,N/A,Rain,Light Rain,240,2013-12-23 19:55:00
3:15 PM,75.2,69.8,83,30.05,10.0,WSW,4.6,-,N/A,,Light Drizzle,250,2013-12-23 20:15:00
3:35 PM,75.2,69.8,83,30.05,10.0,SW,6.9,-,N/A,,Overcast,220,2013-12-23 20:35:00
3:55 PM,75.2,69.8,83,30.05,10.0,SW,11.5,16.1,N/A,,Mostly Cloudy,230,2013-12-23 20:55:00
4:15 PM,73.4,68.0,83,30.05,10.0,WSW,13.8,18.4,N/A,,Light Drizzle,240,2013-12-23 21:15:00
4:35 PM,71.6,68.0,88,30.06,10.0,WSW,6.9,-,N/A,,Drizzle,240,2013-12-23 21:35:00
4:55 PM,71.6,69.8,94,30.06,10.0,SW,8.1,-,N/A,Rain,Light Rain,230,2013-12-23 21:55:00
5:15 PM,69.8,69.8,100,30.06,7.0,SW,6.9,-,0.04,Rain,Light Rain,230,2013-12-23 22:15:00
5:35 PM,69.8,69.8,100,30.07,5.0,West,9.2,-,0.06,Rain,Rain,260,2013-12-23 22:35:00
5:55 PM,64.4,64.4,100,30.08,2.5,NNW,3.5,-,0.19,Rain,Heavy Rain,330,2013-12-23 22:55:00
6:15 PM,62.6,62.6,100,30.09,10.0,NW,3.5,-,0.01,Rain,Rain,320,2013-12-23 23:15:00
6:35 PM,62.6,62.6,100,30.11,7.0,Calm,Calm,-,0.02,Rain,Rain,0,2013-12-23 23:35:00
6:55 PM,62.6,62.6,100,30.11,5.0,NNW,3.5,-,0.06,Rain,Heavy Rain,330,2013-12-23 23:55:00
7:15 PM,62.6,60.8,94,30.11,7.0,Calm,Calm,-,N/A,Rain,Light Rain,0,2013-12-24 00:15:00
7:35 PM,60.8,60.8,100,30.11,7.0,Calm,Calm,-,N/A,Rain,Rain,0,2013-12-24 00:35:00
7:55 PM,60.8,60.8,100,30.13,7.0,Calm,Calm,-,N/A,,Light Drizzle,0,2013-12-24 00:55:00
8:15 PM,60.8,60.8,100,30.14,5.0,Calm,Calm,-,0.01,Rain,Rain,0,2013-12-24 01:15:00
8:35 PM,60.8,60.8,100,30.12,7.0,Calm,Calm,-,0.02,Rain,Light Rain,0,2013-12-24 01:35:00
8:55 PM,60.8,60.8,100,30.11,10.0,Calm,Calm,-,0.02,,Overcast,0,2013-12-24 01:55:00
9:15 PM,60.8,60.8,100,30.11,10.0,Calm,Calm,-,N/A,Rain,Rain,0,2013-12-24 02:15:00
9:35 PM,60.8,60.8,100,30.12,10.0,Calm,Calm,-,N/A,,Light Drizzle,0,2013-12-24 02:35:00
9:55 PM,60.8,60.8,100,30.11,10.0,Calm,Calm,-,N/A,,Overcast,0,2013-12-24 02:55:00
10:15 PM,60.8,60.8,100,30.12,10.0,Calm,Calm,-,0.01,Rain,Rain,0,2013-12-24 03:15:00
10:35 PM,59.0,59.0,100,30.12,10.0,Calm,Calm,-,0.01,Rain,Rain,0,2013-12-24 03:35:00
10:55 PM,59.0,59.0,100,30.12,10.0,Calm,Calm,-,0.02,Rain,Light Rain,0,2013-12-24 03:55:00
11:15 PM,59.0,59.0,100,30.12,5.0,Calm,Calm,-,N/A,,Overcast,0,2013-12-24 04:15:00
11:35 PM,59.0,59.0,100,30.12,10.0,Calm,Calm,-,N/A,,Overcast,0,2013-12-24 04:35:00
11:55 PM,59.0,59.0,100,30.11,10.0,Calm,Calm,-,N/A,,Overcast,0,2013-12-24 04:55:00